H1 CPF 2 NER 2020 11 26 9 331 01 glonass129 H2 1106402 9129 37868 2020 11 26 0 0 0 2020 11 29 23 45 0 900 1 1 0 0 0 1 H9 10 0 59179 0.00000 0 9719645.442 -5974731.326 -22782498.412 10 0 59179 900.00000 0 10469863.826 -3243684.572 -23005166.911 10 0 59179 1800.00000 0 11415841.850 -574809.470 -22779761.743 10 0 59179 2700.00000 0 12530882.478 1967344.785 -22110865.067 10 0 59179 3600.00000 0 13777667.603 4324406.845 -21011700.920 10 0 59179 4500.00000 0 15109784.617 6446365.654 -19503861.154 10 0 59179 5400.00000 0 16473652.456 8293395.011 -17616868.468 10 0 59179 6300.00000 0 17810765.329 9837245.903 -15387586.074 10 0 59179 7200.00000 0 19060159.042 11062150.770 -12859486.599 10 0 59179 8100.00000 0 20160995.810 11965204.627 -10081795.331 10 0 59179 9000.00000 0 21055158.793 12556209.983 -7108525.141 10 0 59179 9900.00000 0 21689747.513 12856994.815 -3997422.545 10 0 59179 10800.00000 0 22019369.836 12900234.939 -808845.643 10 0 59179 11700.00000 0 22008135.012 12727832.445 2395404.141 10 0 59179 12600.00000 0 21631264.982 12388920.130 5553273.893 10 0 59179 13500.00000 0 20876257.326 11937577.041 8603651.958 10 0 59179 14400.00000 0 19743551.881 11430351.786 11487539.167 10 0 59179 15300.00000 0 18246673.744 10923697.827 14149176.727 10 0 59179 16200.00000 0 16411846.871 10471428.115 16537110.132 10 0 59179 17100.00000 0 14277094.158 10122295.305 18605169.871 10 0 59179 18000.00000 0 11890860.825 9917798.245 20313351.281 10 0 59179 18900.00000 0 9310217.162 9890305.941 21628577.915 10 0 59179 19800.00000 0 6598713.640 10061577.057 22525334.875 10 0 59179 20700.00000 0 3823975.515 10441736.783 22986160.685 10 0 59179 21600.00000 0 1055134.494 11028754.225 23001988.728 10 0 59179 22500.00000 0 -1639798.298 11808443.090 22572331.614 10 0 59179 23400.00000 0 -4196511.076 12754987.040 21705304.382 10 0 59179 24300.00000 0 -6556816.685 13831969.546 20417485.091 10 0 59179 25200.00000 0 -8670825.042 14993867.263 18733613.976 10 0 59179 26100.00000 0 -10498773.100 16187946.434 16686135.273 10 0 59179 27000.00000 0 -12012436.403 17356484.743 14314588.641 10 0 59179 27900.00000 0 -13196063.120 18439226.877 11664860.052 10 0 59179 28800.00000 0 -14046790.861 19375971.444 8788305.068 10 0 59179 29700.00000 0 -14574528.056 20109180.609 5740760.201 10 0 59179 30600.00000 0 -14801304.134 20586501.903 2581460.746 10 0 59179 31500.00000 0 -14760115.232 20763094.583 -628113.955 10 0 59179 32400.00000 0 -14493313.940 20603660.508 -3825445.016 10 0 59179 33300.00000 0 -14050611.310 20084091.526 -6948203.870 10 0 59179 34200.00000 0 -13486776.370 19192661.462 -9935482.082 10 0 59179 35100.00000 0 -12859131.737 17930710.052 -12728995.512 10 0 59179 36000.00000 0 -12224952.939 16312787.975 -15274237.630 10 0 59179 36900.00000 0 -11638883.380 14366255.349 -17521557.703 10 0 59179 37800.00000 0 -11150476.218 12130349.567 -19427141.460 10 0 59179 38700.00000 0 -10801968.845 9654761.184 -20953873.986 10 0 59179 39600.00000 0 -10626385.402 6997777.709 -22072067.303 10 0 59179 40500.00000 0 -10646048.446 4224073.467 -22760038.266 10 0 59179 41400.00000 0 -10871562.938 1402238.558 -23004525.700 10 0 59179 42300.00000 0 -11301315.318 -1397849.138 -22800939.207 10 0 59179 43200.00000 0 -11921508.121 -4107698.855 -22153435.671 10 0 59179 44100.00000 0 -12706727.735 -6662817.123 -21074823.028 10 0 59179 45000.00000 0 -13621020.107 -9005144.714 -19586294.317 10 0 59179 45900.00000 0 -14619427.794 -11085219.764 -17716998.408 10 0 59179 46800.00000 0 -15649922.353 -12863978.349 -15503456.839 10 0 59179 47700.00000 0 -16655649.594 -14314119.310 -12988839.212 10 0 59179 48600.00000 0 -17577392.328 -15420978.762 -10222112.135 10 0 59179 49500.00000 0 -18356146.425 -16182880.413 -7257078.973 10 0 59179 50400.00000 0 -18935701.581 -16610949.722 -4151329.735 10 0 59179 51300.00000 0 -19265118.380 -16728402.415 -965121.825 10 0 59179 52200.00000 0 -19300997.914 -16569339.626 2239786.499 10 0 59179 53100.00000 0 -19009449.227 -16177102.202 5401327.333 10 0 59179 54000.00000 0 -18367672.707 -15602254.824 8458316.320 10 0 59179 54900.00000 0 -17365093.674 -14900285.498 11351625.415 10 0 59179 55800.00000 0 -16003999.242 -14129117.355 14025313.312 10 0 59179 56700.00000 0 -14299651.999 -13346537.039 16427692.875 10 0 59179 57600.00000 0 -12279875.567 -12607646.932 18512316.263 10 0 59179 58500.00000 0 -9984128.671 -11962447.157 20238860.017 10 0 59179 59400.00000 0 -7462105.105 -11453647.678 21573894.407 10 0 59179 60300.00000 0 -4771916.113 -11114801.187 22491523.366 10 0 59179 61200.00000 0 -1977928.688 -10968834.302 22973883.499 10 0 59179 62100.00000 0 851652.816 -11027038.278 23011493.040 10 0 59179 63000.00000 0 3647363.925 -11288561.728 22603444.044 10 0 59179 63900.00000 0 6341111.442 -11740427.406 21757433.551 10 0 59179 64800.00000 0 8868751.963 -12358073.628 20489632.142 10 0 59179 65700.00000 0 11172512.041 -13106399.318 18824390.946 10 0 59179 66600.00000 0 13203150.423 -13941270.728 16793791.028 10 0 59179 67500.00000 0 14921772.863 -14811428.406 14437041.951 10 0 59179 68400.00000 0 16301223.771 -15660715.841 11799739.256 10 0 59179 69300.00000 0 17326995.961 -16430537.110 8932993.609 10 0 59179 70200.00000 0 17997619.619 -17062440.438 5892447.212 10 0 59179 71100.00000 0 18324513.245 -17500718.464 2737195.729 10 0 59179 72000.00000 0 18331301.958 -17694914.439 -471363.418 10 0 59179 72900.00000 0 18052631.366 -17602126.847 -3670733.671 10 0 59179 73800.00000 0 17532526.891 -17189012.905 -6798548.535 10 0 59179 74700.00000 0 16822368.216 -16433403.879 -9793801.976 10 0 59179 75600.00000 0 15978565.348 -15325461.441 -12598054.443 10 0 59179 76500.00000 0 15060035.880 -13868323.969 -15156589.248 10 0 59179 77400.00000 0 14125591.777 -12078213.555 -17419494.995 10 0 59179 78300.00000 0 13231347.885 -9983997.766 -19342651.517 10 0 59179 79200.00000 0 12428263.364 -7626223.632 -20888598.983 10 0 59179 80100.00000 0 11759921.287 -5055664.093 -22027272.469 10 0 59179 81000.00000 0 11260641.092 -2331437.903 -22736587.464 10 0 59179 81900.00000 0 10954003.923 481218.009 -23002865.071 10 0 59179 82800.00000 0 10851852.920 3313429.975 -22821089.158 10 0 59179 83700.00000 0 10953809.876 6095318.805 -22194991.310 10 0 59179 84600.00000 0 11247327.498 8758670.801 -21136962.961 10 0 59179 85500.00000 0 11708273.573 11239537.196 -19667797.583 10 0 59180 0.00000 0 12302020.773 13480654.289 -17816269.176 10 0 59180 900.00000 0 12984994.580 15433584.338 -15618556.103 10 0 59180 1800.00000 0 13706612.407 17060489.850 -13117523.261 10 0 59180 2700.00000 0 14411531.068 18335468.213 -10361876.545 10 0 59180 3600.00000 0 15042106.858 19245394.686 -7405207.492 10 0 59180 4500.00000 0 15540963.949 19790239.812 -4304947.025 10 0 59180 5400.00000 0 15853562.755 19982851.173 -1121249.067 10 0 59180 6300.00000 0 15930660.207 19848210.925 2084174.203 10 0 59180 7200.00000 0 15730558.815 19422202.338 5249242.846 10 0 59180 8100.00000 0 15221050.541 18749938.833 8312702.733 10 0 59180 9000.00000 0 14380974.390 17883726.724 11215299.757 10 0 59180 9900.00000 0 13201322.939 16880747.717 13900912.751 10 0 59180 10800.00000 0 11685851.680 15800558.319 16317624.406 10 0 59180 11700.00000 0 9851165.562 14702510.457 18418710.784 10 0 59180 12600.00000 0 7726278.587 13643200.465 20163531.633 10 0 59180 13500.00000 0 5351663.711 12674052.070 21518305.691 10 0 59180 14400.00000 0 2777830.989 11839133.321 22456757.189 10 0 59180 15300.00000 0 63491.084 11173297.719 22960621.955 10 0 59180 16200.00000 0 -2726621.967 10700726.487 23020003.860 10 0 59180 17100.00000 0 -5524180.945 10433932.633 22633574.772 10 0 59180 18000.00000 0 -8259850.189 10373268.629 21808613.636 10 0 59180 18900.00000 0 -10865919.947 10506959.022 20560882.981 10 0 59180 19800.00000 0 -13278882.884 10811657.752 18914343.751 10 0 59180 20700.00000 0 -15441846.908 11253508.273 16900712.290 10 0 59180 21600.00000 0 -17306684.702 11789663.552 14558866.104 10 0 59180 22500.00000 0 -18835830.456 12370203.533 11934107.997 10 0 59180 23400.00000 0 -20003648.263 12940370.528 9077301.194 10 0 59180 24300.00000 0 -20797314.114 13443028.939 6043890.876 10 0 59180 25200.00000 0 -21217173.388 13821245.530 2892830.299 10 0 59180 26100.00000 0 -21276557.725 14020880.540 -314567.853 10 0 59180 27000.00000 0 -21001068.063 13993078.702 -3515832.141 10 0 59180 27900.00000 0 -20427353.524 13696552.868 -6648560.906 10 0 59180 28800.00000 0 -19601437.583 13099561.284 -9651653.219 10 0 59180 29700.00000 0 -18576662.669 12181492.388 -12466516.724 10 0 59180 30600.00000 0 -17411340.992 10933987.615 -15038227.037 10 0 59180 31500.00000 0 -16166212.144 9361552.636 -17316614.348 10 0 59180 32400.00000 0 -14901816.458 7481629.367 -19257254.582 10 0 59180 33300.00000 0 -13675896.548 5324124.374 -20822344.660 10 0 59180 34200.00000 0 -12540938.074 2930412.778 -21981444.032 10 0 59180 35100.00000 0 -11541954.462 351859.103 -22712067.769 10 0 59180 36000.00000 0 -10714609.394 -2352082.852 -23000119.822 10 0 59180 36900.00000 0 -10083756.104 -5116111.214 -22840158.510 10 0 59180 37800.00000 0 -9662454.296 -7871564.233 -22235489.916 10 0 59180 38700.00000 0 -9451504.824 -10549051.267 -21198088.404 10 0 59180 39600.00000 0 -9439520.099 -13081116.595 -19748346.942 10 0 59180 40500.00000 0 -9603525.310 -15404825.187 -17914663.310 10 0 59180 41400.00000 0 -9910063.092 -17464163.318 -15732871.334 10 0 59180 42300.00000 0 -10316753.141 -19212154.876 -13245529.346 10 0 59180 43200.00000 0 -10774239.233 -20612606.678 -10501080.605 10 0 59180 44100.00000 0 -11228440.131 -21641411.844 -7552902.769 10 0 59180 45000.00000 0 -11623008.409 -22287358.912 -4458265.568 10 0 59180 45900.00000 0 -11901892.872 -22552415.227 -1277217.275 10 0 59180 46800.00000 0 -12011896.353 -22451475.098 1928578.218 10 0 59180 47700.00000 0 -11905121.251 -22011585.317 5097031.203 10 0 59180 48600.00000 0 -11541200.226 -21270682.360 8166820.102 10 0 59180 49500.00000 0 -10889218.754 -20275895.450 11078567.123 10 0 59180 50400.00000 0 -9929249.295 -19081487.365 13775973.649 10 0 59180 51300.00000 0 -8653433.053 -17746519.439 16206894.582 10 0 59180 52200.00000 0 -7066564.021 -16332338.097 18324332.195 10 0 59180 53100.00000 0 -5186150.542 -14899987.290 20087331.593 10 0 59180 54000.00000 0 -3041950.862 -13507653.803 21461761.908 10 0 59180 54900.00000 0 -675000.591 -12208250.805 22420969.324 10 0 59180 55800.00000 0 1863829.345 -11047239.261 22946290.233 10 0 59180 56700.00000 0 4515686.660 -10060776.970 23027415.150 10 0 59180 57600.00000 0 7215929.160 -9274271.689 22662596.420 10 0 59180 58500.00000 0 9896565.270 -8701398.443 21858695.221 10 0 59180 59400.00000 0 12488844.806 -8343622.186 20631066.013 10 0 59180 60300.00000 0 14925894.557 -8190246.400 19003279.219 10 0 59180 61200.00000 0 17145290.623 -8218986.608 17006685.773 10 0 59180 62100.00000 0 19091461.496 -8397045.973 14679830.081 10 0 59180 63000.00000 0 20717822.022 -8682649.070 12067720.777 10 0 59180 63900.00000 0 21988548.765 -9026970.421 9220971.806 10 0 59180 64800.00000 0 22879921.700 -9376377.228 6194829.099 10 0 59180 65700.00000 0 23381174.807 -9674891.871 3048100.868 10 0 59180 66600.00000 0 23494818.477 -9866769.676 -157987.868 10 0 59180 67500.00000 0 23236418.938 -9899081.823 -3360993.975 10 0 59180 68400.00000 0 22633843.035 -9724192.386 -6498483.911 10 0 59180 69300.00000 0 21725999.608 -9302022.475 -9509265.146 10 0 59180 70200.00000 0 20561130.607 -8602003.202 -12334595.692 10 0 59180 71100.00000 0 19194724.533 -7604632.275 -14919346.461 10 0 59180 72000.00000 0 17687141.255 -6302566.065 -17213091.964 10 0 59180 72900.00000 0 16101049.712 -4701198.927 -19171106.664 10 0 59180 73800.00000 0 14498787.963 -2818703.662 -20755246.366 10 0 59180 74700.00000 0 12939758.214 -685530.351 -21934696.676 10 0 59180 75600.00000 0 11477967.590 1656616.048 -22686573.656 10 0 59180 76500.00000 0 10159818.753 4156276.623 -22996365.119 10 0 59180 77400.00000 0 9022243.381 6754154.843 -22858204.434 10 0 59180 78300.00000 0 8091256.394 9385367.775 -22274972.364 10 0 59180 79200.00000 0 7380990.519 11981937.696 -21258225.953 10 0 59180 80100.00000 0 6893250.094 14475419.672 -19827957.016 10 0 59180 81000.00000 0 6617600.778 16799555.388 -18012186.106 10 0 59180 81900.00000 0 6531989.044 18892842.766 -15846400.996 10 0 59180 82800.00000 0 6603863.048 20700914.733 -13372851.706 10 0 59180 83700.00000 0 6791745.405 22178628.970 -10639716.718 10 0 59180 84600.00000 0 7047189.630 23291782.866 -7700157.366 10 0 59180 85500.00000 0 7317036.210 24018383.747 -4611279.460 10 0 59181 0.00000 0 7545872.069 24349423.377 -1433022.772 10 0 59181 900.00000 0 7678588.818 24289126.196 1773000.289 10 0 59181 1800.00000 0 7662932.528 23854663.552 4944693.287 10 0 59181 2700.00000 0 7451936.359 23075346.522 8020670.245 10 0 59181 3600.00000 0 7006135.518 21991333.766 10941432.626 10 0 59181 4500.00000 0 6295470.862 20651908.474 13650507.113 10 0 59181 5400.00000 0 5300802.072 19113397.265 16095523.351 10 0 59181 6300.00000 0 4014966.991 17436817.673 18229212.108 10 0 59181 7200.00000 0 2443342.645 15685351.823 20010305.871 10 0 59181 8100.00000 0 603883.839 13921750.596 21404325.911 10 0 59181 9000.00000 0 -1473363.517 12205775.114 22384241.816 10 0 59181 9900.00000 0 -3747255.718 10591780.774 22930991.656 10 0 59181 10800.00000 0 -6167012.069 9126543.000 23033853.330 10 0 59181 11700.00000 0 -8674084.983 7847414.166 22690659.981 10 0 59181 12600.00000 0 -11204364.225 6780887.685 21907854.886 10 0 59181 13500.00000 0 -13690626.335 5941628.825 20700383.807 10 0 59181 14400.00000 0 -16065129.772 5332012.790 19091425.504 10 0 59181 15300.00000 0 -18262249.636 4942189.964 17111963.877 10 0 59181 16200.00000 0 -20221043.509 4750676.445 14800208.143 10 0 59181 17100.00000 0 -21887642.066 4725446.093 12200870.317 10 0 59181 18000.00000 0 -23217364.351 4825479.197 9364312.318 10 0 59181 18900.00000 0 -24176468.552 5002703.308 6345577.888 10 0 59181 19800.00000 0 -24743463.626 5204244.670 3203327.172 10 0 59181 20700.00000 0 -24909925.185 5374894.960 -1305.537 10 0 59181 21600.00000 0 -24680779.785 5459688.176 -3205908.417 10 0 59181 22500.00000 0 -24074044.267 5406477.136 -6348018.997 10 0 59181 23400.00000 0 -23120030.064 5168398.576 -9366355.990 10 0 59181 24300.00000 0 -21860045.536 4706120.098 -12202030.507 10 0 59181 25200.00000 0 -20344651.032 3989771.367 -14799711.297 10 0 59181 26100.00000 0 -18631540.818 3000475.393 -17108719.506 10 0 59181 27000.00000 0 -16783142.115 1731412.968 -19084030.122 10 0 59181 27900.00000 0 -14864033.576 188373.412 -20687159.440 10 0 59181 28800.00000 0 -12938293.126 -1610232.918 -21886920.381 10 0 59181 29700.00000 0 -11066887.847 -3633901.772 -22660030.680 10 0 59181 30600.00000 0 -9305216.241 -5841080.101 -22991562.198 10 0 59181 31500.00000 0 -7700906.421 -8180685.160 -22875223.067 10 0 59181 32400.00000 0 -6291962.199 -10594033.702 -22313467.990 10 0 59181 33300.00000 0 -5105333.876 -13017100.107 -21317435.568 10 0 59181 34200.00000 0 -4155972.111 -15383008.470 -19906714.983 10 0 59181 35100.00000 0 -3446402.488 -17624654.245 -18108947.802 10 0 59181 36000.00000 0 -2966836.159 -19677345.840 -15959273.772 10 0 59181 36900.00000 0 -2695809.331 -21481356.050 -13499632.473 10 0 59181 37800.00000 0 -2601322.080 -22984277.393 -10777935.412 10 0 59181 38700.00000 0 -2642426.122 -24143083.968 -7847125.380 10 0 59181 39600.00000 0 -2771192.619 -24925814.972 -4764142.071 10 0 59181 40500.00000 0 -2934975.451 -25312811.125 -1588814.477 10 0 59181 41400.00000 0 -3078873.395 -25297454.066 1617298.303 10 0 59181 42300.00000 0 -3148286.843 -24886379.547 4792095.258 10 0 59181 43200.00000 0 -3091461.107 -24099157.174 7874128.031 10 0 59181 44100.00000 0 -2861909.386 -22967451.434 10803779.317 10 0 59181 45000.00000 0 -2420613.889 -21533700.062 13524403.055 10 0 59181 45900.00000 0 -1737913.025 -19849365.407 15983405.540 10 0 59181 46800.00000 0 -794995.822 -17972831.735 18133247.849 10 0 59181 47700.00000 0 415058.955 -15967035.566 19932351.532 10 0 59181 48600.00000 0 1886742.828 -13896926.772 21345891.495 10 0 59181 49500.00000 0 3602100.204 -11826864.660 22346461.996 10 0 59181 50400.00000 0 5531235.595 -9818055.914 22914603.798 10 0 59181 51300.00000 0 7633326.268 -7926139.246 23039182.925 10 0 59181 52200.00000 0 9858100.503 -6199015.756 22717613.791 10 0 59181 53100.00000 0 12147722.436 -4675014.124 21955921.958 10 0 59181 54000.00000 0 14439007.750 -3381466.210 20768644.423 10 0 59181 54900.00000 0 16665880.479 -2333752.103 19178567.942 10 0 59181 55800.00000 0 18761970.651 -1534854.647 17216308.773 10 0 59181 56700.00000 0 20663246.078 -975442.581 14919740.057 10 0 59181 57600.00000 0 22310569.291 -634479.544 12333275.973 10 0 59181 58500.00000 0 23652072.828 -480334.274 9507024.873 10 0 59181 59400.00000 0 24645252.900 -472346.017 6495826.412 10 0 59181 60300.00000 0 25258692.433 -562779.588 3358190.417 10 0 59181 61200.00000 0 25473339.549 -699087.566 155157.889 10 0 59181 62100.00000 0 25283285.929 -826383.404 -3050893.491 10 0 59181 63000.00000 0 24696010.566 -890019.617 -6197475.313 10 0 59181 63900.00000 0 23732077.124 -838160.227 -9223220.584 10 0 59181 64800.00000 0 22424296.637 -624236.358 -12069096.506 10 0 59181 65700.00000 0 20816390.274 -209178.628 -14679572.519 10 0 59181 66600.00000 0 18961208.594 436670.577 -17003719.048 10 0 59181 67500.00000 0 16918582.812 1332048.110 -18996214.025 10 0 59181 68400.00000 0 14752899.365 2483730.110 -20618236.373 10 0 59181 69300.00000 0 12530500.917 3886006.503 -21838228.197 10 0 59181 70200.00000 0 10317023.986 5520693.145 -22632510.473 10 0 59181 71100.00000 0 8174785.754 7357681.701 -22985740.359 10 0 59181 72000.00000 0 6160330.091 9356004.198 -22891201.636 10 0 59181 72900.00000 0 4322235.488 11465367.344 -22350923.445 10 0 59181 73800.00000 0 2699275.927 13628091.841 -21375626.000 10 0 59181 74700.00000 0 1319010.412 15781374.815 -19984495.470 10 0 59181 75600.00000 0 196858.252 17859780.193 -18204793.613 10 0 59181 76500.00000 0 -664303.569 19797852.458 -16071310.871 10 0 59181 77400.00000 0 -1274006.705 21532744.318 -13625674.713 10 0 59181 78300.00000 0 -1653529.922 23006748.645 -10915527.603 10 0 59181 79200.00000 0 -1834740.285 24169629.346 -7993591.386 10 0 59181 80100.00000 0 -1858488.256 24980654.575 -4916636.962 10 0 59181 81000.00000 0 -1772626.404 25410248.435 -1744379.706 10 0 59181 81900.00000 0 -1629736.769 25441193.482 1461677.749 10 0 59181 82800.00000 0 -1484663.686 25069335.207 4639432.867 10 0 59181 83700.00000 0 -1391956.557 24303760.489 7727377.982 10 0 59181 84600.00000 0 -1403330.350 23166443.793 10665780.011 10 0 59181 85500.00000 0 -1565250.410 21691376.839 13397822.989 10 0 59182 0.00000 0 -1916742.621 19923218.598 15870692.458 10 0 59182 900.00000 0 -2487520.821 17915521.708 18036582.323 10 0 59182 1800.00000 0 -3296508.409 15728609.180 19853605.338 10 0 59182 2700.00000 0 -4350818.160 13427188.193 21286591.953 10 0 59182 3600.00000 0 -5645231.197 11077799.118 22307762.720 10 0 59182 4500.00000 0 -7162199.263 8746204.105 22897262.396 10 0 59182 5400.00000 0 -8872371.103 6494821.847 23043546.059 10 0 59182 6300.00000 0 -10735623.192 4380313.322 22743609.900 10 0 59182 7200.00000 0 -12702554.136 2451417.383 22003061.814 10 0 59182 8100.00000 0 -14716383.033 747124.961 20836029.564 10 0 59182 9000.00000 0 -16715175.211 -704732.831 19264906.919 10 0 59182 9900.00000 0 -18634304.721 -1888424.067 17319940.979 10 0 59182 10800.00000 0 -20409052.631 -2800743.441 15038666.796 10 0 59182 11700.00000 0 -21977233.707 -3450909.385 12465198.273 10 0 59182 12600.00000 0 -23281741.942 -3859934.421 9649387.397 10 0 59182 13500.00000 0 -24272907.980 -4059494.511 6645866.667 10 0 59182 14400.00000 0 -24910568.462 -4090344.483 3512992.363 10 0 59182 15300.00000 0 -25165758.792 -4000346.163 311708.882 10 0 59182 16200.00000 0 -25021956.165 -3842192.835 -2895643.552 10 0 59182 17100.00000 0 -24475818.531 -3670927.167 -6046553.864 10 0 59182 18000.00000 0 -23537386.456 -3541359.024 -9079572.529 10 0 59182 18900.00000 0 -22229737.830 -3505494.430 -11935525.880 10 0 59182 19800.00000 0 -20588108.887 -3610086.744 -14558686.907 10 0 59182 20700.00000 0 -18658518.096 -3894416.035 -16897877.893 10 0 59182 21600.00000 0 -16495950.893 -4388392.896 -18907481.936 10 0 59182 22500.00000 0 -14162182.068 -5111068.875 -20548342.370 10 0 59182 23400.00000 0 -11723328.191 -6069618.051 -21788531.730 10 0 59182 24300.00000 0 -9247233.689 -7258833.872 -22603974.896 10 0 59182 25200.00000 0 -6800800.966 -8661163.123 -22978914.381 10 0 59182 26100.00000 0 -4447377.014 -10247275.719 -22906209.083 10 0 59182 27000.00000 0 -2244305.945 -11977146.148 -22387461.513 10 0 59182 27900.00000 0 -240749.317 -13801600.644 -21432971.972 10 0 59182 28800.00000 0 1524135.583 -15664264.429 -20061521.705 10 0 59182 29700.00000 0 3022585.040 -17503826.648 -18299990.441 10 0 59182 30600.00000 0 4239129.901 -19256527.490 -16182816.897 10 0 59182 31500.00000 0 5170973.069 -20858762.776 -13751313.847 10 0 59182 32400.00000 0 5827830.594 -22249696.816 -11052852.064 10 0 59182 33300.00000 0 6231245.949 -23373774.252 -8139929.779 10 0 59182 34200.00000 0 6413409.017 -24183026.166 -5069146.470 10 0 59182 35100.00000 0 6415531.953 -24639074.697 -1900101.355 10 0 59182 36000.00000 0 6285852.254 -24714753.292 1305761.845 10 0 59182 36900.00000 0 6077348.589 -24395275.901 4486341.352 10 0 59182 37800.00000 0 5845266.496 -23678907.452 7580072.339 10 0 59182 38700.00000 0 5644558.482 -22577108.604 10527107.918 10 0 59182 39600.00000 0 5527346.176 -21114149.607 13270464.023 10 0 59182 40500.00000 0 5540510.843 -19326209.851 15757107.145 10 0 59182 41400.00000 0 5723512.919 -17260000.606 17938965.232 10 0 59182 42300.00000 0 6106531.487 -14970967.920 19773843.481 10 0 59182 43200.00000 0 6709001.322 -12521149.377 21226228.817 10 0 59182 44100.00000 0 7538608.754 -9976772.370 22267968.726 10 0 59182 45000.00000 0 8590788.799 -7405691.902 22878812.329 10 0 59182 45900.00000 0 9848745.565 -4874772.305 23046803.868 10 0 59182 46800.00000 0 11283996.656 -2447319.516 22768521.170 10 0 59182 47700.00000 0 12857420.806 -180668.764 22049154.094 10 0 59182 48600.00000 0 14520767.354 1875973.689 20902420.607 10 0 59182 49500.00000 0 16218566.955 3683346.136 19350320.738 10 0 59182 50400.00000 0 17890366.027 5213529.242 17422731.500 10 0 59182 51300.00000 0 19473193.477 6450867.986 15156848.752 10 0 59182 52200.00000 0 20904157.932 7392378.873 12596484.817 10 0 59182 53100.00000 0 22123067.339 8047624.742 9791233.793 10 0 59182 54000.00000 0 23074961.038 8438061.740 6795519.277 10 0 59182 54900.00000 0 23712447.132 8595885.316 3667542.007 10 0 59182 55800.00000 0 23997745.436 8562423.430 468147.561 10 0 59182 56700.00000 0 23904348.074 8386144.894 -2740363.710 10 0 59182 57600.00000 0 23418225.597 8120367.552 -5895460.586 10 0 59182 58500.00000 0 22538525.607 7820764.332 -8935613.591 10 0 59182 59400.00000 0 21277732.459 7542774.343 -11801510.725 10 0 59182 60300.00000 0 19661279.730 7339030.566 -14437230.945 10 0 59182 61200.00000 0 17726630.742 7256915.202 -16791350.661 10 0 59182 62100.00000 0 15521865.388 7336348.284 -18817960.206 10 0 59182 63000.00000 0 13103832.622 7607905.100 -20477569.207 10 0 59182 63900.00000 0 10535946.810 8091343.571 -21737882.301 10 0 59182 64800.00000 0 7885720.971 8794604.989 -22574429.740 10 0 59182 65700.00000 0 5222141.051 9713330.917 -22971040.613 10 0 59182 66600.00000 0 2612991.785 10830916.768 -22920149.875 10 0 59182 67500.00000 0 122246.191 12119099.538 -22422934.007 10 0 59182 68400.00000 0 -2192372.378 13539054.345 -21489273.587 10 0 59182 69300.00000 0 -4281554.519 15042952.807 -20137544.695 10 0 59182 70200.00000 0 -6106206.335 16575916.885 -18394244.331 10 0 59182 71100.00000 0 -7638814.933 18078285.238 -16293458.332 10 0 59182 72000.00000 0 -8864323.080 19488096.219 -13876183.213 10 0 59182 72900.00000 0 -9780479.184 20743682.798 -11189516.123 10 0 59182 73800.00000 0 -10397650.874 21786270.366 -8285729.447 10 0 59182 74700.00000 0 -10738112.792 22562468.533 -5221248.772 10 0 59182 75600.00000 0 -10834841.283 23026552.882 -2055554.508 10 0 59182 76500.00000 0 -10729868.930 23142441.674 1149971.282 10 0 59182 77400.00000 0 -10472269.972 22885285.594 4333230.400 10 0 59182 78300.00000 0 -10115862.639 22242604.863 7432603.676 10 0 59182 79200.00000 0 -9716725.807 21214927.084 10388133.214 10 0 59182 80100.00000 0 -9330634.555 19815899.846 13142669.556 10 0 59182 81000.00000 0 -9010522.161 18071873.820 15642962.698 10 0 59182 81900.00000 0 -8804074.580 16020973.705 17840677.172 10 0 59182 82800.00000 0 -8751557.600 13711695.285 19693312.858 10 0 59182 83700.00000 0 -8883967.144 11201085.963 21165015.195 10 0 59182 84600.00000 0 -9221579.722 8552582.893 22227260.412 10 0 59182 85500.00000 0 -9772963.652 5833596.726 22859403.493 99